Location: Auckland
(36.8670°S, 174.7670°E)
Time: 07:33:49
(UTC+13:00)

Cosmos 2219 Rocket - Pass Details

Date: 17 November 2019
Orbit: 827 x 847 km, 71.0° (Epoch: 10 December)

Event Time Altitude Azimuth Distance (km) Brightness Sun altitude
Rises 21:16:58 0° 212° (SSW) 3,410 6.7 -12.4°
Reaches altitude 10° 21:19:37 10° 221° (SW) 2,465 6.0 -12.8°
Maximum altitude 21:24:39 34° 284° (WNW) 1,342 3.6 -13.7°
Drops below altitude 10° 21:29:38 10° 347° (NNW) 2,430 4.3 -14.4°
Enters shadow 21:31:52 - 355° (N) 3,221 4.9 -14.8°
